Weather Roundup
Issued by NWS

Home | Current Version | Previous Version | Graphics & Text | Print | Product List | Glossary Off
Versions: 1 2 3 4 5 6 7 8 9 10 11 12 13 14 15 16 17 18 19 20 21 22 23 24 25 26 27 28 29 30 31 32 33 34 35 36 37 38 39 40 41 42 43 44 45 46 47 48 49 50

000
NZUS93 KARX 212110
HRRWXR

CURRENT HOURLY OBSERVATIONS ACROSS
MUCH OF THE UPPER MISSISSIPPI VALLEY
NATIONAL WEATHER SERVICE LA CROSSE WI
400 PM CDT THU SEP 21 2017


...SOUTHEAST MINNESOTA...


CITY           SKY/WX    TMP DP  RH WIND       PRES   REMARKS
ROCHESTER      MOSUNNY   86  69  56 S14       29.87F HX  90
ROCHESTER/MAYO FAIR      84  65  52 SE8G17    29.86F
WINONA         SUNNY     90  64  43 S6        29.88F HX  91
AUSTIN         SUNNY     84  66  54 S17       29.84F
ALBERT LEA     SUNNY     90  72  55 S12G17    29.82F HX  96
DODGE CENTER   MOSUNNY   84  66  54 S14       29.86F
PRESTON        SUNNY     85  64  49 S15G21    29.89F
OWATONNA       SUNNY     84  70  61 SE16      29.83F
FARIBAULT      SUNNY     82  70  65 SE12G18   29.83F
$$

...ELSEWHERE IN MINNESOTA...


CITY           SKY/WX    TMP DP  RH WIND       PRES   REMARKS
MINNEAPOLIS    MOSUNNY   83  69  62 SE14G22   29.82F
INTNL FALLS    SUNNY     71  47  42 SE15G23   29.86F
DULUTH         MOSUNNY   69  57  65 E15       29.92F
RED WING       SUNNY     82  64  54 SE12      29.84F
REDWOOD FALLS  PTSUNNY   85  68  56 SE18G29   29.75S
MANKATO        SUNNY     84  70  62 SE16      29.80F
WORTHINGTON    MOSUNNY   84  72  67 S22G29    29.76F
FAIRMONT       PTSUNNY   85  72  65 S17G25    29.79F HX  91
$$

...SOUTHWEST WISCONSIN...


CITY           SKY/WX    TMP DP  RH WIND       PRES   REMARKS
LA CROSSE      SUNNY     90  64  43 SE14      29.89  HX  91
PRAIRIE DU CHI CLOUDY    87  59  38 SE12      29.91S
BOSCOBEL       CLOUDY    89  61  38 VRB7      29.92F
LONE ROCK      SUNNY     85  65  51 SE13      29.94F
PLATTEVILLE    MOSUNNY   85  62  45 SE13      29.97S
FORT MC COY    SUNNY     83  65  54 S12       29.93F
CAMP DOUGLAS   MOSUNNY   84  66  54 SE13      29.95F
MAUSTON-NEW LI CLEAR    N/A N/A N/A S8G17     29.95F
VIROQUA        FAIR      84  65  52 SE8       29.94F
WIS DELLS      SUNNY     83  63  52 SE9       29.97S
$$

...ELSEWHERE IN WISCONSIN...


CITY           SKY/WX    TMP DP  RH WIND       PRES   REMARKS
MILWAUKEE      CLOUDY    81  69  67 SE8       29.99F
MADISON        PTSUNNY   84  69  60 SE9       29.97S
GREEN BAY      CLOUDY    81  72  74 NE8       29.99S
EAU CLAIRE     MOSUNNY   79  68  69 SE9       29.90F
BLACK RVR FLS  FAIR      86  61  42 S8        29.92F
MEDFORD        CLOUDY    71  67  86 SE8       29.98S
WAUSAU         CLOUDY    76  67  73 SE9       29.98S
WIS RAPIDS     PTSUNNY   82  68  62 S8G20     29.98F
MARSHFIELD     MOSUNNY   79  66  64 SE12      29.97F
RICE LAKE      CLOUDY    76  66  71 SE13      29.92S
$$

...NORTHEAST IOWA...


CITY           SKY/WX    TMP DP  RH WIND       PRES   REMARKS
WATERLOO       SUNNY     91  66  43 S17G25    29.85F HX  93
DUBUQUE        CLOUDY    81  65  58 SE13      29.96F
DECORAH        SUNNY     88  63  42 VRB7G15   29.89F
MASON CITY     SUNNY     89  66  46 S18G24    29.84F HX  91
CHARLES CITY   SUNNY     90  66  45 S13G20    29.86F HX  92
OELWEIN        SUNNY     91  66  43 S20G29    29.89F HX  94
$$

...ELSEWHERE IN IOWA...


CITY           SKY/WX    TMP DP  RH WIND       PRES   REMARKS
DES MOINES     CLOUDY    89  72  56 S24G30    29.83F HX  96
IOWA CITY      SUNNY     90  68  48 S15       29.93S HX  94
FORT DODGE     MOSUNNY   87  71  58 S17G28    29.81F HX  93
MARSHALLTOWN   SUNNY     90  72  55 S21G26    29.84F HX  97
CEDAR RAPIDS   SUNNY     89  68  49 S16G24    29.90S HX  93
$$

...NORTHERN ILLINOIS...


CITY           SKY/WX    TMP DP  RH WIND       PRES   REMARKS
CHICAGO-OHARE  PTSUNNY   94  61  33 S6        29.97F HX  94
CHICAGO-MIDWAY MOSUNNY   94  66  39 SW8       29.97F HX  97
MOLINE         CLOUDY    84  66  54 SE5       29.95F
ROCKFORD       CLOUDY    87  60  40 S12       29.98F
PEORIA         CLOUDY    90  72  55 SE7       29.97F HX  97
$$

NOTE: "FAIR" INDICATES FEW OR NO CLOUDS BELOW 12,000 FEET WITH NO
SIGNIFICANT WEATHER AND/OR OBSTRUCTIONS TO VISIBILITY. WIND
SPEEDS ARE IN MILES-PER-HOUR.




USA.gov is the U.S. government's official web portal to all federal, state and local government web resources and services.